This demonstration page uses our WeatherBlox Daily Observations layout. Learn more.

Left ArrowRight Arrow

34.16533, -84.80231

Hourly Observations for February 12, 2015

Temp ( °F °C ) Dew Point ( °F °C ) Humidity (%) Winds ( mph kmh ) Pressure ( in mb ) Visibility ( mi km ) Precip ( " mm )
12:53 am 00:53 Clear 38 3.3 29 -1.7 70 70 Calm 30.03 1017 10 16 0.00 0.00
1:53 am 01:53 Clear 38 3.3 29 -1.7 70 70 Calm 30.03 1017 10 16 0.00 0.00
2:53 am 02:53 Clear 37 2.8 29 -1.7 73 73 Calm 30.02 1017 10 16 0.00 0.00
3:53 am 03:53 Clear 34 1.1 28 -2.2 79 79 Calm 30.02 1017 10 16 0.00 0.00
4:53 am 04:53 Clear 33 0.6 28 -2.2 82 82 Calm 30.02 1017 10 16 0.00 0.00
5:53 am 05:53 Clear 34 1.1 28 -2.2 79 79 Calm 30.03 1017 10 16 0.00 0.00
6:53 am 06:53 Clear 33 0.6 28 -2.2 82 82 Calm 30.04 1017 10 16 0.00 0.00
7:53 am 07:53 Sunny 32 0 28 -2.2 85 85 Calm 30.05 1018 7 11 0.00 0.00
8:53 am 08:53 Partly Cloudy 37 2.8 30 -1.1 76 76 Calm 30.09 1019 7 11 0.00 0.00
9:03 am 09:03 Mostly Cloudy 38 3.3 31 -0.6 76 76 Calm 30.12 1020 7 11 0.00 0.00
9:53 am 09:53 Mostly Cloudy 40 4.4 32 0 73 73 Calm 30.11 1020 8 13 0.00 0.00
10:11 am 10:11 Partly Cloudy 42 5.6 31 -0.6 65 65 VRB 6 9 30.12 1020 9 14 0.00 0.00
10:53 am 10:53 Partly Cloudy 43 6.1 28 -2.2 56 56 VRB 5 7 30.11 1020 10 16 0.00 0.00
11:53 am 11:53 Sunny 46 7.8 19 -7.2 34 34 NW 10 17 30.11 1020 10 16 0.00 0.00
12:53 pm 12:53 Sunny 45 7.2 19 -7.2 35 35 VRB 7 11 30.12 1020 10 16 0.00 0.00
1:53 pm 13:53 Sunny 41 5 17 -8.3 38 38 VRB 7 11 30.14 1021 10 16 0.00 0.00
2:53 pm 14:53 Sunny 39 3.9 17 -8.3 41 41 NW 9 15 30.17 1022 10 16 0.00 0.00
3:53 pm 15:53 Sunny 39 3.9 16 -8.9 39 39 NW 10 17 30.18 1022 10 16 0.00 0.00
4:53 pm 16:53 Sunny 37 2.8 13 -10.6 37 37 VRB 6 9 30.20 1023 10 16 0.00 0.00
5:53 pm 17:53 Sunny 33 0.6 12 -11.1 42 42 VRB 7 11 30.23 1024 10 16 0.00 0.00
6:53 pm 18:53 Clear 31 -0.6 10 -12.2 42 42 NNW 5 7 30.25 1025 10 16 0.00 0.00
7:53 pm 19:53 Clear 30 -1.1 8 -13.3 39 39 NNW 12 19 30.29 1026 10 16 0.00 0.00
8:53 pm 20:53 Clear 29 -1.7 9 -12.8 43 43 Calm 30.31 1026 10 16 0.00 0.00
9:53 pm 21:53 Clear 28 -2.2 8 -13.3 43 43 VRB 5 7 30.30 1026 10 16 0.00 0.00
10:53 pm 22:53 Clear 27 -2.8 8 -13.3 45 45 N 6 9 30.29 1026 10 16 0.00 0.00
11:53 pm 23:53 Clear 26 -3.3 8 -13.3 46 46 NNW 6 9 30.28 1025 10 16 0.00 0.00

Powered by AerisWeather